Back to catalog

THORAD AGENA D DEB

AliveSSO
NORAD 4914·DEBRIS·🇺🇸 United States

Launched Apr 8, 1970 from Vandenberg Space Force Base

Loading…

Next Passes (next 24 hours)

TLE

FreshSource: Space-Track

Epoch: Sep 14, 2026, 08:39 UTC

1 04914U 70025FL  26257.36059087  .00002779  00000-0  30921-2 0  9994
2 04914  99.4428 201.8562 0080388 342.6850 170.3391 13.70932285786998

Track THORAD AGENA D DEB in real time with AllMySat

Download on the App Store